Flag for Germany Weather past 2 weeks in Stade, Lower Saxony, Germany

Now
57 °F

Scattered clouds.


Feels Like: 55 °F
Forecast: 51 / 61 °F
Wind: 9 mph from West

Location: Hamburg-Finkenwerder

Current Time: Aug 23, 2014 at 12:09:54 PM

Latest Report: Aug 23, 2014 at 11:20 AM


Visibility: N/A

Pressure: 29.83 "Hg

Humidity: 77%

Dew point: 50 °F

Location of StadeLocation

Historic Weather in Stade — Graph

°F

Stade temperature yesterday

Maximum temperature yesterday: 64 °F (at 12:20 PM)
Minimum temperature yesterday: 52 °F (at 6:20 AM)
Average temperature yesterday: 61 °F

Past Weeks' High & Low Weather Summary

 TemperatureHumidityPressure
High79 °F (Aug 8, 4:20 PM)100% (Aug 15, 6:20 AM)29.98 "Hg (Aug 15, 6:20 AM)
Low46 °F (Aug 21, 5:50 AM)38% (Aug 13, 3:20 PM)29.47 "Hg (Aug 18, 10:20 AM)
Average62 °F72%29.77 "Hg
* Reported Aug 8 10:20 AM — Aug 23 10:50 AM, Stade, Weather by CustomWeather, © 2014

Note: Actual official high and low records may vary slightly from our data, if they occured in-between our weather recording intervals... More about our weather records

Advertising

Stade weather history for previous 24 hours

 ConditionsComfort  
Time TempWeatherWind HumidityBarometerVisibility
10:50 AM
Aug 23
59 °FScattered clouds.9 mph77%29.83 "HgN/A
10:20 AM57 °FScattered clouds.9 mph77%29.83 "HgN/A
9:50 AM55 °FScattered clouds.8 mph88%29.83 "HgN/A
9:20 AM54 °FScattered clouds.9 mph88%29.83 "HgN/A
8:50 AM54 °FBroken clouds.10 mph88%29.83 "Hg6 mi
8:20 AM52 °FPartly sunny.8 mph94%29.83 "Hg5 mi
7:50 PM
Aug 22
61 °FPartly sunny.12 mph68%29.77 "HgN/A
7:20 PM63 °FBroken clouds.12 mph64%29.77 "HgN/A
6:52 PM63 °FThundershowers. Broken clouds.8 mph64%29.77 "HgN/A
6:20 PM63 °FPartly sunny.10 mph64%29.77 "HgN/A
5:50 PM63 °FScattered showers. Broken clouds.8 mph64%29.77 "HgN/A
5:20 PM63 °FSprinkles. Partly sunny.12 mph64%29.77 "HgN/A
4:50 PM63 °FBroken clouds.9 mph64%29.77 "HgN/A
4:20 PM63 °FScattered showers. Broken clouds.13 mph64%29.77 "HgN/A
3:50 PM64 °FScattered showers. Broken clouds.13 mph56%29.77 "HgN/A
3:20 PM64 °FBroken clouds.13 mph56%29.80 "HgN/A
2:50 PM64 °FBroken clouds.14 mph56%29.80 "HgN/A
2:20 PM64 °FBroken clouds.10 mph56%29.80 "HgN/A
1:50 PM64 °FScattered clouds.15 mph52%29.80 "HgN/A
1:20 PM64 °FScattered clouds.17 mph56%29.80 "HgN/A
12:50 PM64 °FScattered clouds.21 mph56%29.80 "HgN/A
12:20 PM64 °FScattered clouds.21 mph56%29.80 "HgN/A
Weather by CustomWeather, © 2014

See weather overviewHow to use our weather pages